Meadville, PA

7:29 AM EDT on May 25, 2017 (GMT -0400)
Port Meadville

Weather History for KGKJ - December, 2012

Change the Weather History Date:

Wednesday, December 5, 2012

  Actual Average Record
Temperature  
Mean Temperature 34 °F -  
Max Temperature 39 °F 38 °F 68 °F (2001)
Min Temperature 30 °F 25 °F -3 °F (1966)
Degree Days  
Heating Degree Days 30    
Moisture  
Dew Point 26 °F    
Average Humidity 74    
Maximum Humidity 93    
Minimum Humidity 60    
Precipitation  
Precipitation 0.01 in - - ()
Sea Level Pressure  
Sea Level Pressure 30.27 in    
Wind  
Wind Speed 6 mph (NW)    
Max Wind Speed 14 mph    
Max Gust Speed 26 mph    
Visibility 10 miles    
Events      
Averages and records for this station are not official NWS values.
T = Trace of Precipitation, MM = Missing Value Source: NWS Daily Summary

Daily Weather History Graph

Daily Weather History Graph

Search for Another Location

Airport or City:

Trip Planner

Search our weather history database for the weather conditions in past years. The results will help you decide how hot, cold, wet, or windy it might be!

Date:

Astronomy

Dec. 05, 2012 Rise Set
Actual Time 7:32 AM EST 4:50 PM EST
Civil Twilight 7:01 AM EST 5:21 PM EST
Nautical Twilight 6:26 AM EST 5:56 PM EST
Astronomical Twilight 5:53 AM EST 6:30 PM EST
Moon 11:42 PM EST (12/5) 11:51 AM EST (12/5)
Length of Visible Light 10h 20m
Length of Day
9h 17m
Waning Gibbous, 60% of the Moon is Illuminated
Dec 5
Waning Gibbous
Dec 6
Last Quarter
Dec 13
New
Dec 20
First Quarter
Dec 28
Full

Hourly Weather History & Observations

Time (EST) Temp. Windchill Dew Point Humidity Pressure Visibility Wind Dir Wind Speed Gust Speed Precip Events Conditions
12:53 AM 39.9 °F 35.1 °F 37.0 °F 89% 30.09 in 10.0 mi West 6.9 mph - N/A   Clear
1:53 AM 39.9 °F 36.7 °F 36.0 °F 86% 30.10 in 10.0 mi WSW 4.6 mph - N/A   Clear
2:53 AM 39.0 °F 34.8 °F 36.0 °F 89% 30.12 in 10.0 mi SW 5.8 mph - 0.01 in   Clear
3:53 AM 37.0 °F 34.5 °F 35.1 °F 93% 30.12 in 9.0 mi SW 3.5 mph - N/A   Clear
4:32 AM 37.4 °F 34.9 °F 35.6 °F 93% 30.12 in 9.0 mi West 3.5 mph - N/A   Mostly Cloudy
4:53 AM 37.9 °F 33.5 °F 35.1 °F 89% 30.14 in 10.0 mi West 5.8 mph - N/A   Mostly Cloudy
5:00 AM 37.4 °F 34.9 °F 33.8 °F 87% 30.13 in 10.0 mi WNW 3.5 mph - N/A   Scattered Clouds
5:53 AM 36.0 °F 32.1 °F 33.1 °F 89% 30.17 in 10.0 mi West 4.6 mph - N/A   Partly Cloudy
6:07 AM 35.6 °F 31.7 °F 33.8 °F 93% 30.15 in 10.0 mi West 4.6 mph - N/A   Mostly Cloudy
6:53 AM 36.0 °F 33.3 °F 32.0 °F 86% 30.19 in 10.0 mi WNW 3.5 mph - N/A   Overcast
7:53 AM 36.0 °F 32.1 °F 32.0 °F 86% 30.21 in 10.0 mi WNW 4.6 mph - N/A   Overcast
9:53 AM 35.1 °F 28.6 °F 28.9 °F 78% 30.27 in 10.0 mi NW 8.1 mph - N/A   Overcast
10:53 AM 34.0 °F 25.5 °F 26.1 °F 73% 30.29 in 10.0 mi NW 11.5 mph 18.4 mph N/A   Overcast
11:03 AM 33.8 °F 27.7 °F 26.6 °F 75% 30.26 in 10.0 mi Variable 6.9 mph 16.1 mph N/A   Overcast
11:28 AM 33.8 °F 26.4 °F 24.8 °F 70% 30.26 in 10.0 mi NNW 9.2 mph 18.4 mph N/A   Overcast
11:53 AM 33.1 °F 24.9 °F 25.0 °F 72% 30.30 in 10.0 mi NW 10.4 mph 18.4 mph N/A   Overcast
12:10 PM 33.8 °F 25.3 °F 21.2 °F 60% 30.27 in 10.0 mi NW 11.5 mph 23.0 mph N/A   Overcast
12:41 PM 33.8 °F 24.8 °F 21.2 °F 60% 30.27 in 10.0 mi NW 12.7 mph 26.5 mph N/A   Overcast
12:53 PM 33.1 °F 23.4 °F 21.9 °F 64% 30.31 in 10.0 mi NNW 13.8 mph 17.3 mph N/A   Overcast
1:00 PM 33.8 °F 27.0 °F 21.2 °F 60% 30.27 in 10.0 mi NW 8.1 mph - N/A   Overcast
1:17 PM 33.8 °F 25.8 °F 21.2 °F 60% 30.28 in 10.0 mi NW 10.4 mph 20.7 mph N/A   Overcast
1:53 PM 33.1 °F 24.9 °F 21.9 °F 64% 30.31 in 10.0 mi NNW 10.4 mph 17.3 mph N/A   Overcast
2:53 PM 34.0 °F 25.5 °F 21.9 °F 61% 30.31 in 10.0 mi NW 11.5 mph - N/A   Overcast
3:13 PM 33.8 °F 25.8 °F 21.2 °F 60% 30.28 in 10.0 mi NW 10.4 mph 16.1 mph N/A   Overcast
3:53 PM 33.1 °F 26.9 °F 24.1 °F 70% 30.34 in 10.0 mi North 6.9 mph - N/A   Overcast
4:45 PM 33.8 °F 27.0 °F 24.8 °F 70% 30.31 in 10.0 mi NNW 8.1 mph - N/A   Overcast
4:53 PM 33.1 °F 28.7 °F 24.1 °F 70% 30.35 in 10.0 mi NNW 4.6 mph - N/A   Overcast
5:04 PM 32.0 °F 27.5 °F 24.8 °F 75% 30.32 in 10.0 mi WNW 4.6 mph - N/A   Overcast
5:17 PM 33.8 °F 26.4 °F 24.8 °F 70% 30.32 in 10.0 mi NW 9.2 mph - N/A   Overcast
5:53 PM 32.0 °F 25.6 °F 24.1 °F 73% 30.37 in 10.0 mi North 6.9 mph - N/A   Overcast
6:53 PM 30.9 °F 25.2 °F 21.9 °F 69% 30.36 in 10.0 mi Variable 5.8 mph - N/A   Mostly Cloudy
7:07 PM 30.2 °F 26.7 °F 21.2 °F 69% 30.32 in 10.0 mi North 3.5 mph - N/A   Scattered Clouds
7:53 PM 30.0 °F 24.1 °F 21.9 °F 72% 30.36 in 10.0 mi North 5.8 mph - N/A   Mostly Cloudy
8:53 PM 30.9 °F 26.2 °F 21.9 °F 69% 30.35 in 10.0 mi ENE 4.6 mph - N/A   Overcast
9:36 PM 30.2 °F - 21.2 °F 69% 30.32 in 10.0 mi Calm Calm - N/A   Scattered Clouds
9:50 PM 30.2 °F - 21.2 °F 69% 30.32 in 10.0 mi Calm Calm - N/A   Mostly Cloudy
9:53 PM 30.0 °F - 21.0 °F 69% 30.37 in 10.0 mi Calm Calm - N/A   Mostly Cloudy
10:53 PM 30.0 °F - 21.0 °F 69% 30.38 in 10.0 mi Calm Calm - N/A   Overcast
11:53 PM 30.0 °F - 19.9 °F 66% 30.38 in 10.0 mi Calm Calm - N/A   Overcast